Time,TemperatureF,DewpointF,PressureIn,WindDirection,WindDirectionDegrees,WindSpeedMPH,WindSpeedGustMPH,Humidity,HourlyPrecipIn,Conditions,Clouds,dailyrainin,SoftwareType,DateUTC
2013-06-13 00:01:00,50.0,46.0,30.34,SE,131,0.0,-999.0,86,-99.99,,,-99.99,,2013-06-13 07:01:00,
2013-06-13 00:11:00,50.0,46.0,30.34,SE,131,0.0,-999.0,86,-99.99,,,-99.99,,2013-06-13 07:11:00,
2013-06-13 00:22:00,50.0,46.0,30.34,SE,131,0.0,-999.0,86,-99.99,,,-99.99,,2013-06-13 07:22:00,
2013-06-13 00:33:00,49.0,45.0,30.33,SE,130,0.0,-999.0,86,-99.99,,,-99.99,,2013-06-13 07:33:00,
2013-06-13 00:42:00,49.0,45.0,30.33,SE,130,0.0,-999.0,86,-99.99,,,-99.99,,2013-06-13 07:42:00,
2013-06-13 00:52:00,48.0,44.0,30.33,SE,131,0.0,-999.0,87,-99.99,,,-99.99,,2013-06-13 07:52:00,
2013-06-13 01:01:00,48.0,44.0,30.33,SE,131,0.0,-999.0,87,-99.99,,,-99.99,,2013-06-13 08:01:00,
2013-06-13 01:11:00,48.0,44.0,30.33,SE,131,0.0,-999.0,87,-99.99,,,-99.99,,2013-06-13 08:11:00,
2013-06-13 01:22:00,48.0,44.0,30.33,SE,131,0.0,-999.0,87,-99.99,,,-99.99,,2013-06-13 08:22:00,
2013-06-13 01:32:00,48.0,45.0,30.34,SE,131,0.0,-999.0,89,-99.99,,,-99.99,,2013-06-13 08:32:00,
2013-06-13 01:43:00,48.0,45.0,30.34,SE,131,0.0,-999.0,89,-99.99,,,-99.99,,2013-06-13 08:43:00,
2013-06-13 01:52:00,48.0,45.0,30.34,SE,131,0.0,-999.0,89,-99.99,,,-99.99,,2013-06-13 08:52:00,
2013-06-13 02:01:00,48.0,45.0,30.34,SE,130,0.0,-999.0,89,-99.99,,,-99.99,,2013-06-13 09:01:00,
2013-06-13 02:11:00,48.0,45.0,30.34,SE,130,0.0,-999.0,89,-99.99,,,-99.99,,2013-06-13 09:11:00,
2013-06-13 02:22:00,48.0,45.0,30.34,SE,131,0.0,-999.0,89,-99.99,,,-99.99,,2013-06-13 09:22:00,
2013-06-13 02:32:00,48.0,45.0,30.34,SE,131,0.0,-999.0,89,-99.99,,,-99.99,,2013-06-13 09:32:00,
2013-06-13 02:42:00,48.0,45.0,30.34,SE,131,0.0,-999.0,89,-99.99,,,-99.99,,2013-06-13 09:42:00,
2013-06-13 02:52:00,48.0,45.0,30.34,SE,131,0.0,-999.0,89,-99.99,,,-99.99,,2013-06-13 09:52:00,
2013-06-13 03:01:00,48.0,45.0,30.34,SE,131,0.0,-999.0,91,-99.99,,,-99.99,,2013-06-13 10:01:00,
2013-06-13 03:11:00,48.0,45.0,30.34,SE,131,0.0,-999.0,91,-99.99,,,-99.99,,2013-06-13 10:11:00,
2013-06-13 03:22:00,49.0,46.0,30.34,SE,130,0.0,-999.0,91,-99.99,,,-99.99,,2013-06-13 10:22:00,
2013-06-13 03:33:00,49.0,46.0,30.34,SE,130,0.0,-999.0,91,-99.99,,,-99.99,,2013-06-13 10:33:00,
2013-06-13 03:43:00,49.0,46.0,30.34,SE,130,0.0,-999.0,91,-99.99,,,-99.99,,2013-06-13 10:43:00,
2013-06-13 03:53:00,49.0,46.0,30.34,SE,131,0.0,-999.0,91,-99.99,,,-99.99,,2013-06-13 10:53:00,
2013-06-13 04:01:00,49.0,46.0,30.34,SE,131,0.0,-999.0,91,-99.99,,,-99.99,,2013-06-13 11:01:00,
2013-06-13 04:11:00,49.0,46.0,30.34,SE,131,0.0,-999.0,91,-99.99,,,-99.99,,2013-06-13 11:11:00,
2013-06-13 04:23:00,49.0,46.0,30.35,SE,130,0.0,-999.0,91,-99.99,,,-99.99,,2013-06-13 11:23:00,
2013-06-13 04:32:00,49.0,46.0,30.35,SE,130,0.0,-999.0,91,-99.99,,,-99.99,,2013-06-13 11:32:00,
2013-06-13 04:42:00,49.0,46.0,30.35,SE,130,0.0,-999.0,91,-99.99,,,-99.99,,2013-06-13 11:42:00,
2013-06-13 04:52:00,50.0,47.0,30.34,SE,130,0.0,-999.0,91,-99.99,,,-99.99,,2013-06-13 11:52:00,
2013-06-13 05:01:00,50.0,47.0,30.34,SE,130,0.0,-999.0,91,-99.99,,,-99.99,,2013-06-13 12:01:00,
2013-06-13 05:11:00,50.0,47.0,30.34,SE,130,0.0,-999.0,91,-99.99,,,-99.99,,2013-06-13 12:11:00,
2013-06-13 05:22:00,50.0,48.0,30.34,SE,131,0.0,-999.0,92,-99.99,,,-99.99,,2013-06-13 12:22:00,
2013-06-13 05:34:00,50.0,48.0,30.34,SE,131,0.0,-999.0,92,-99.99,,,-99.99,,2013-06-13 12:34:00,
2013-06-13 05:43:00,50.0,48.0,30.34,SE,131,0.0,-999.0,92,-99.99,,,-99.99,,2013-06-13 12:43:00,
2013-06-13 05:52:00,50.0,48.0,30.33,SE,131,0.0,-999.0,92,-99.99,,,-99.99,,2013-06-13 12:52:00,
2013-06-13 06:01:00,50.0,48.0,30.33,SE,131,0.0,-999.0,92,-99.99,,,-99.99,,2013-06-13 13:01:00,
2013-06-13 06:11:00,50.0,48.0,30.33,SE,131,0.0,-999.0,92,-99.99,,,-99.99,,2013-06-13 13:11:00,
2013-06-13 06:21:00,50.0,48.0,30.33,SE,131,0.0,-999.0,92,-99.99,,,-99.99,,2013-06-13 13:21:00,
2013-06-13 06:32:00,50.0,48.0,30.34,SE,131,0.0,-999.0,93,-99.99,,,-99.99,,2013-06-13 13:32:00,
2013-06-13 06:43:00,50.0,48.0,30.34,SE,131,0.0,-999.0,93,-99.99,,,-99.99,,2013-06-13 13:43:00,
2013-06-13 06:53:00,50.0,48.0,30.34,SE,131,0.0,-999.0,93,-99.99,,,-99.99,,2013-06-13 13:53:00,
2013-06-13 07:01:00,50.0,48.0,30.34,SE,130,0.0,-999.0,93,-99.99,,,-99.99,,2013-06-13 14:01:00,
2013-06-13 07:11:00,50.0,48.0,30.34,SE,130,0.0,-999.0,93,-99.99,,,-99.99,,2013-06-13 14:11:00,
2013-06-13 07:22:00,50.0,48.0,30.34,SE,130,0.0,-999.0,93,-99.99,,,-99.99,,2013-06-13 14:22:00,
2013-06-13 07:33:00,51.0,49.0,30.35,SE,141,0.0,-999.0,93,-99.99,,,-99.99,,2013-06-13 14:33:00,
2013-06-13 07:43:00,51.0,49.0,30.35,SE,141,0.0,-999.0,93,-99.99,,,-99.99,,2013-06-13 14:43:00,
2013-06-13 07:53:00,51.0,49.0,30.35,SE,141,0.0,-999.0,93,-99.99,,,-99.99,,2013-06-13 14:53:00,
2013-06-13 08:01:00,51.0,49.0,30.35,SE,141,0.0,-999.0,93,-99.99,,,-99.99,,2013-06-13 15:01:00,
2013-06-13 08:12:00,51.0,49.0,30.35,SE,141,0.0,-999.0,93,-99.99,,,-99.99,,2013-06-13 15:12:00,
2013-06-13 08:21:00,52.0,50.0,30.35,SE,141,1.0,-999.0,92,-99.99,,,-99.99,,2013-06-13 15:21:00,
2013-06-13 08:33:00,52.0,50.0,30.35,SE,141,1.0,-999.0,92,-99.99,,,-99.99,,2013-06-13 15:33:00,
2013-06-13 08:53:00,52.0,50.0,30.35,SE,141,0.0,-999.0,92,-99.99,,,-99.99,,2013-06-13 15:53:00,
2013-06-13 09:01:00,52.0,50.0,30.35,SE,141,0.0,-999.0,92,-99.99,,,-99.99,,2013-06-13 16:01:00,
2013-06-13 09:11:00,52.0,50.0,30.35,SE,141,0.0,-999.0,92,-99.99,,,-99.99,,2013-06-13 16:11:00,
2013-06-13 09:22:00,53.0,51.0,30.36,SE,142,0.0,-999.0,92,-99.99,,,-99.99,,2013-06-13 16:22:00,
2013-06-13 09:33:00,53.0,51.0,30.36,SE,142,0.0,-999.0,92,-99.99,,,-99.99,,2013-06-13 16:33:00,
2013-06-13 09:43:00,53.0,51.0,30.36,SE,142,0.0,-999.0,92,-99.99,,,-99.99,,2013-06-13 16:43:00,
2013-06-13 09:53:00,53.0,51.0,30.36,SE,142,0.0,-999.0,92,-99.99,,,-99.99,,2013-06-13 16:53:00,
2013-06-13 10:02:00,54.0,51.0,30.36,SE,141,1.0,-999.0,90,-99.99,,,-99.99,,2013-06-13 17:02:00,
2013-06-13 10:11:00,54.0,51.0,30.36,SE,141,1.0,-999.0,90,-99.99,,,-99.99,,2013-06-13 17:11:00,
2013-06-13 10:24:00,54.0,51.0,30.36,SE,141,1.0,-999.0,90,-99.99,,,-99.99,,2013-06-13 17:24:00,
2013-06-13 10:32:00,55.0,52.0,30.36,SE,141,0.0,-999.0,88,-99.99,,,-99.99,,2013-06-13 17:32:00,
2013-06-13 10:43:00,55.0,52.0,30.36,SE,141,0.0,-999.0,88,-99.99,,,-99.99,,2013-06-13 17:43:00,
2013-06-13 10:53:00,55.0,52.0,30.36,SE,141,0.0,-999.0,88,-99.99,,,-99.99,,2013-06-13 17:53:00,
2013-06-13 11:01:00,56.0,52.0,30.37,SE,141,0.0,-999.0,87,-99.99,,,-99.99,,2013-06-13 18:01:00,
2013-06-13 11:11:00,56.0,52.0,30.37,SE,141,0.0,-999.0,87,-99.99,,,-99.99,,2013-06-13 18:11:00,
2013-06-13 11:22:00,56.0,52.0,30.38,SSW,193,1.0,-999.0,87,-99.99,,,-99.99,,2013-06-13 18:22:00,
2013-06-13 11:33:00,56.0,52.0,30.38,SSW,193,1.0,-999.0,87,-99.99,,,-99.99,,2013-06-13 18:33:00,
2013-06-13 11:43:00,56.0,52.0,30.38,SSW,193,1.0,-999.0,87,-99.99,,,-99.99,,2013-06-13 18:43:00,
2013-06-13 11:52:00,56.0,52.0,30.38,SSW,193,1.0,-999.0,87,-99.99,,,-99.99,,2013-06-13 18:52:00,
2013-06-13 12:01:00,57.0,53.0,30.38,SSW,196,0.0,-999.0,86,-99.99,,,-99.99,,2013-06-13 19:01:00,
2013-06-13 12:11:00,57.0,53.0,30.38,SSW,196,0.0,-999.0,86,-99.99,,,-99.99,,2013-06-13 19:11:00,
2013-06-13 12:22:00,58.0,53.0,30.39,SSW,200,0.0,-999.0,83,-99.99,,,-99.99,,2013-06-13 19:22:00,
2013-06-13 12:32:00,58.0,53.0,30.39,SSW,200,0.0,-999.0,83,-99.99,,,-99.99,,2013-06-13 19:32:00,
2013-06-13 12:43:00,58.0,53.0,30.39,SSW,200,0.0,-999.0,83,-99.99,,,-99.99,,2013-06-13 19:43:00,
2013-06-13 12:53:00,58.0,53.0,30.39,SSW,200,0.0,-999.0,83,-99.99,,,-99.99,,2013-06-13 19:53:00,
2013-06-13 13:01:00,60.0,53.0,30.38,SW,228,1.0,-999.0,77,-99.99,,,-99.99,,2013-06-13 20:01:00,
2013-06-13 13:11:00,60.0,53.0,30.38,SW,228,1.0,-999.0,77,-99.99,,,-99.99,,2013-06-13 20:11:00,
2013-06-13 13:22:00,62.0,53.0,30.39,SSE,152,0.0,-999.0,73,-99.99,,,-99.99,,2013-06-13 20:22:00,
2013-06-13 13:32:00,62.0,53.0,30.39,SSE,152,0.0,-999.0,73,-99.99,,,-99.99,,2013-06-13 20:32:00,
2013-06-13 13:44:00,62.0,53.0,30.39,SSE,152,0.0,-999.0,73,-99.99,,,-99.99,,2013-06-13 20:44:00,
2013-06-13 13:53:00,62.0,53.0,30.39,SSE,152,0.0,-999.0,73,-99.99,,,-99.99,,2013-06-13 20:53:00,
2013-06-13 14:01:00,64.0,54.0,30.39,SSE,166,2.0,-999.0,69,-99.99,,,-99.99,,2013-06-13 21:01:00,
2013-06-13 14:11:00,64.0,54.0,30.39,SSE,166,2.0,-999.0,69,-99.99,,,-99.99,,2013-06-13 21:11:00,
2013-06-13 14:22:00,65.0,54.0,30.39,SSE,150,1.0,-999.0,67,-99.99,,,-99.99,,2013-06-13 21:22:00,
2013-06-13 14:33:00,65.0,54.0,30.39,SSE,150,1.0,-999.0,67,-99.99,,,-99.99,,2013-06-13 21:33:00,
2013-06-13 14:43:00,65.0,54.0,30.39,SSE,150,1.0,-999.0,67,-99.99,,,-99.99,,2013-06-13 21:43:00,
2013-06-13 14:52:00,66.0,53.0,30.40,SE,135,1.0,-999.0,63,-99.99,,,-99.99,,2013-06-13 21:52:00,
2013-06-13 15:01:00,66.0,53.0,30.40,SE,135,1.0,-999.0,63,-99.99,,,-99.99,,2013-06-13 22:01:00,
2013-06-13 15:11:00,66.0,53.0,30.40,SE,135,1.0,-999.0,63,-99.99,,,-99.99,,2013-06-13 22:11:00,
2013-06-13 15:22:00,66.0,53.0,30.40,SE,135,1.0,-999.0,63,-99.99,,,-99.99,,2013-06-13 22:22:00,
2013-06-13 15:32:00,65.0,53.0,30.40,ENE,59,1.0,-999.0,66,-99.99,,,-99.99,,2013-06-13 22:32:00,
2013-06-13 15:43:00,65.0,53.0,30.40,ENE,59,1.0,-999.0,66,-99.99,,,-99.99,,2013-06-13 22:43:00,
2013-06-13 15:52:00,65.0,53.0,30.40,ENE,59,1.0,-999.0,66,-99.99,,,-99.99,,2013-06-13 22:52:00,
2013-06-13 16:01:00,64.0,54.0,30.40,SSE,157,0.0,-999.0,70,-99.99,,,-99.99,,2013-06-13 23:01:00,
2013-06-13 16:11:00,64.0,54.0,30.40,SSE,157,0.0,-999.0,70,-99.99,,,-99.99,,2013-06-13 23:11:00,
2013-06-13 16:22:00,63.0,52.0,30.40,NE,47,3.0,-999.0,67,-99.99,,,-99.99,,2013-06-13 23:22:00,
2013-06-13 16:32:00,63.0,52.0,30.40,NE,47,3.0,-999.0,67,-99.99,,,-99.99,,2013-06-13 23:32:00,
2013-06-13 16:43:00,63.0,52.0,30.40,NE,47,3.0,-999.0,67,-99.99,,,-99.99,,2013-06-13 23:43:00,
2013-06-13 16:52:00,63.0,52.0,30.40,NE,47,3.0,-999.0,67,-99.99,,,-99.99,,2013-06-13 23:52:00,
2013-06-13 17:01:00,64.0,53.0,30.40,SE,134,2.0,-999.0,67,-99.99,,,-99.99,,2013-06-14 00:01:00,
2013-06-13 17:11:00,64.0,53.0,30.40,SE,134,2.0,-999.0,67,-99.99,,,-99.99,,2013-06-14 00:11:00,
2013-06-13 17:22:00,64.0,53.0,30.40,SE,134,2.0,-999.0,67,-99.99,,,-99.99,,2013-06-14 00:22:00,
2013-06-13 17:33:00,65.0,53.0,30.40,SE,139,2.0,-999.0,66,-99.99,,,-99.99,,2013-06-14 00:33:00,
2013-06-13 17:43:00,65.0,53.0,30.40,SE,139,2.0,-999.0,66,-99.99,,,-99.99,,2013-06-14 00:43:00,
2013-06-13 17:53:00,65.0,53.0,30.40,SE,139,2.0,-999.0,66,-99.99,,,-99.99,,2013-06-14 00:53:00,
2013-06-13 18:01:00,63.0,52.0,30.40,ESE,104,0.0,-999.0,68,-99.99,,,-99.99,,2013-06-14 01:01:00,
2013-06-13 18:11:00,63.0,52.0,30.40,ESE,104,0.0,-999.0,68,-99.99,,,-99.99,,2013-06-14 01:11:00,
2013-06-13 18:22:00,62.0,52.0,30.40,SSW,201,1.0,-999.0,70,-99.99,,,-99.99,,2013-06-14 01:22:00,
2013-06-13 18:32:00,62.0,52.0,30.40,SSW,201,1.0,-999.0,70,-99.99,,,-99.99,,2013-06-14 01:32:00,
2013-06-13 18:43:00,62.0,52.0,30.40,SSW,201,1.0,-999.0,70,-99.99,,,-99.99,,2013-06-14 01:43:00,
2013-06-13 18:52:00,62.0,52.0,30.40,SSW,201,1.0,-999.0,70,-99.99,,,-99.99,,2013-06-14 01:52:00,
2013-06-13 19:01:00,60.0,51.0,30.40,SE,125,2.0,-999.0,73,-99.99,,,-99.99,,2013-06-14 02:01:00,
2013-06-13 19:11:00,60.0,51.0,30.40,SE,125,2.0,-999.0,73,-99.99,,,-99.99,,2013-06-14 02:11:00,
2013-06-13 19:22:00,59.0,51.0,30.40,SE,127,1.0,-999.0,75,-99.99,,,-99.99,,2013-06-14 02:22:00,
2013-06-13 19:32:00,59.0,51.0,30.40,SE,127,1.0,-999.0,75,-99.99,,,-99.99,,2013-06-14 02:32:00,
2013-06-13 19:43:00,59.0,51.0,30.40,SE,127,1.0,-999.0,75,-99.99,,,-99.99,,2013-06-14 02:43:00,
2013-06-13 19:52:00,58.0,50.0,30.40,SSW,192,0.0,-999.0,76,-99.99,,,-99.99,,2013-06-14 02:52:00,
2013-06-13 20:02:00,58.0,50.0,30.40,SSW,192,0.0,-999.0,76,-99.99,,,-99.99,,2013-06-14 03:02:00,
2013-06-13 20:11:00,58.0,50.0,30.40,SSW,192,0.0,-999.0,76,-99.99,,,-99.99,,2013-06-14 03:11:00,
2013-06-13 20:22:00,58.0,50.0,30.40,SSW,192,0.0,-999.0,76,-99.99,,,-99.99,,2013-06-14 03:22:00,
2013-06-13 20:34:00,58.0,51.0,30.41,SSE,149,0.0,-999.0,78,-99.99,,,-99.99,,2013-06-14 03:34:00,
2013-06-13 20:43:00,58.0,51.0,30.41,SSE,149,0.0,-999.0,78,-99.99,,,-99.99,,2013-06-14 03:43:00,
2013-06-13 20:53:00,58.0,51.0,30.41,SSE,149,0.0,-999.0,78,-99.99,,,-99.99,,2013-06-14 03:53:00,
2013-06-13 21:01:00,57.0,51.0,30.41,SSE,149,0.0,-999.0,81,-99.99,,,-99.99,,2013-06-14 04:01:00,
2013-06-13 21:12:00,57.0,51.0,30.41,SSE,149,0.0,-999.0,81,-99.99,,,-99.99,,2013-06-14 04:12:00,
2013-06-13 21:22:00,56.0,51.0,30.41,SSE,149,0.0,-999.0,82,-99.99,,,-99.99,,2013-06-14 04:22:00,
2013-06-13 21:33:00,56.0,51.0,30.41,SSE,149,0.0,-999.0,82,-99.99,,,-99.99,,2013-06-14 04:33:00,
2013-06-13 21:43:00,56.0,51.0,30.41,SSE,149,0.0,-999.0,82,-99.99,,,-99.99,,2013-06-14 04:43:00,
2013-06-13 21:53:00,56.0,51.0,30.41,SSE,149,0.0,-999.0,82,-99.99,,,-99.99,,2013-06-14 04:53:00,
2013-06-13 22:01:00,55.0,50.0,30.41,SSE,149,0.0,-999.0,84,-99.99,,,-99.99,,2013-06-14 05:01:00,
2013-06-13 22:11:00,55.0,50.0,30.41,SSE,149,0.0,-999.0,84,-99.99,,,-99.99,,2013-06-14 05:11:00,
2013-06-13 22:22:00,54.0,50.0,30.42,SSE,149,0.0,-999.0,86,-99.99,,,-99.99,,2013-06-14 05:22:00,
2013-06-13 22:33:00,54.0,50.0,30.42,SSE,149,0.0,-999.0,86,-99.99,,,-99.99,,2013-06-14 05:33:00,
2013-06-13 22:43:00,54.0,50.0,30.42,SSE,149,0.0,-999.0,86,-99.99,,,-99.99,,2013-06-14 05:43:00,
2013-06-13 22:52:00,54.0,50.0,30.42,SSE,149,0.0,-999.0,86,-99.99,,,-99.99,,2013-06-14 05:52:00,
2013-06-13 23:02:00,53.0,49.0,30.42,SSE,149,0.0,-999.0,86,-99.99,,,-99.99,,2013-06-14 06:02:00,
2013-06-13 23:12:00,53.0,49.0,30.42,SSE,149,0.0,-999.0,86,-99.99,,,-99.99,,2013-06-14 06:12:00,
2013-06-13 23:22:00,52.0,48.0,30.42,SSE,149,0.0,-999.0,87,-99.99,,,-99.99,,2013-06-14 06:22:00,
2013-06-13 23:33:00,52.0,48.0,30.42,SSE,149,0.0,-999.0,87,-99.99,,,-99.99,,2013-06-14 06:33:00,
2013-06-13 23:43:00,52.0,48.0,30.42,SSE,149,0.0,-999.0,87,-99.99,,,-99.99,,2013-06-14 06:43:00,
2013-06-13 23:52:00,51.0,48.0,30.41,SSE,149,0.0,-999.0,88,-99.99,,,-99.99,,2013-06-14 06:52:00,